Probability
0 0 0 0 0 0 0 0 0 0 0 0 0 0 0 0 0 0 3 6 6 16 19 26 45 48 48 42 42 48 35 35 35 29 29 19 19 19 19 16 10 6 10 16 10 10 10 10 10
0 0 0 0 0 0 0 0 0 0 0 0 0 0 0 0 0 6 6 6 6 16 23 26 32 42 39 42 42 45 39 35 35 29 29 23 19 19 13 13 6 6 6 10 10 10 6 10 10
0 0 0 0 0 0 0 0 0 0 0 0 0 0 0 0 0 3 3 6 10 16 19 23 35 35 39 39 45 42 35 35 29 29 29 26 23 19 16 6 6 6 6 6 10 3 10 10 10
0 0 0 0 0 0 0 0 0 0 0 0 0 0 0 0 0 0 3 6 13 16 19 19 35 32 32 35 45 42 35 29 29 26 29 23 19 16 13 6 6 10 6 6 6 3 3 6 10
0 0 0 0 0 0 0 0 0 0 0 0 0 0 0 0 0 3 6 6 13 16 19 19 23 29 26 29 39 42 39 32 29 23 26 16 16 10 13 13 10 10 6 6 6 3 3 3 3
0 0 0 0 0 0 0 0 0 0 0 0 0 0 0 0 3 6 6 6 16 16 19 19 23 23 29 29 29 32 29 26 29 23 19 19 13 6 10 10 10 10 6 6 6 3 3 3 3
0 0 0 0 0 0 0 0 0 0 0 0 0 0 0 0 3 6 10 10 13 13 19 19 19 23 26 19 29 29 26 23 23 19 23 19 16 10 10 10 10 6 6 6 6 3 3 3 3
0 0 0 0 0 0 0 0 0 0 0 0 0 0 0 0 6 6 10 10 10 13 16 19 19 19 23 16 13 6 10 10 10 13 10 6 6 6 6 6 6 6 6 6 6 3 3 3 3
0 0 0 0 0 0 0 0 0 0 0 0 0 0 0 0 6 6 10 10 10 16 16 16 16 16 19 13 3 3 6 6 10 3 3 3 6 6 6 0 0 6 6 6 6 3 3 3 3
0 0 0 0 0 0 0 0 0 0 0 0 0 0 0 0 6 6 10 10 10 13 13 16 16 13 13 10 6 6 3 10 6 10 3 3 3 6 0 3 0 0 3 3 3 3 3 3 3
0 0 0 0 0 0 0 0 0 0 0 0 0 0 0 0 3 0 0 6 6 10 10 6 13 13 13 13 3 6 3 3 3 6 3 3 3 0 0 3 3 3 0 3 3 3 0 0 0
0 0 0 0 0 0 0 0 0 0 0 0 0 0 0 0 0 3 3 3 6 6 6 6 10 13 13 10 6 3 3 3 3 6 3 0 0 0 0 0 0 3 3 3 3 3 0 0 0
0 0 0 0 0 0 0 0 0 0 0 0 0 3 0 0 0 0 3 3 0 6 6 6 10 10 10 10 6 0 0 0 0 3 0 0 0 0 0 0 0 0 0 3 3 3 3 0 0
0 0 0 0 0 0 0 0 0 0 0 0 0 3 0 0 0 0 0 3 3 3 3 6 6 6 6 10 6 0 0 0 0 0 0 0 0 0 0 0 0 0 0 0 0 3 3 3 0
0 0 0 0 0 0 0 0 0 0 0 0 3 3 0 0 0 0 0 0 3 0 3 6 6 6 6 6 3 0 0 0 0 0 0 0 0 0 0 0 0 0 0 0 0 0 0 0 3
0 0 0 0 0 0 0 0 0 0 0 0 0 3 0 0 0 0 0 0 0 3 3 3 6 6 6 3 3 3 0 0 0 0 0 0 0 0 0 0 0 0 0 0 0 0 0 0 0
0 0 0 0 0 0 0 0 0 0 0 0 0 3 3 0 0 0 0 0 0 3 6 3 3 3 6 6 3 3 0 0 0 0 0 0 0 0 0 0 0 0 0 0 0 0 0 0 0
0 0 0 0 0 0 0 0 0 0 0 0 0 0 3 0 0 0 0 0 0 0 3 3 3 0 3 6 3 0 0 0 0 0 0 0 0 0 0 0 0 0 0 0 0 0 0 0 0
0 0 0 0 0 0 0 0 0 0 0 0 0 0 0 3 3 0 0 0 0 0 0 3 3 3 0 0 0 0 0 0 0 0 0 0 0 0 0 0 0 0 0 0 0 0 0 0 0
0 0 0 0 0 0 0 0 0 0 0 0 0 0 0 3 3 0 0 0 0 0 0 0 3 3 3 0 0 0 0 0 0 0 0 0 0 0 0 0 0 0 0 0 0 0 0 0 0
0 0 0 0 0 0 0 0 0 0 0 0 0 0 0 0 3 3 0 0 3 0 0 0 0 0 0 3 3 0 0 0 0 0 0 0 0 0 0 0 0 0 0 0 0 0 0 0 0
0 0 0 0 0 0 0 0 0 0 0 0 0 0 0 0 0 0 0 0 0 3 0 0 0 0 0 3 3 3 0 0 0 0 0 0 0 0 0 0 0 0 0 0 0 0 0 0 0
0 0 0 0 0 0 0 0 0 0 0 0 0 0 0 0 0 0 0 0 0 3 3 0 0 0 0 0 0 0 0 0 0 0 0 0 0 0 0 0 0 0 0 0 0 0 0 0 0
0 0 0 0 0 0 0 0 0 0 0 0 0 0 0 0 0 0 0 3 3 3 3 3 0 0 0 0 0 0 0 0 0 0 0 0 0 0 0 0 0 0 0 0 0 0 0 0 0
0 0 0 0 0 0 0 0 0 0 0 0 0 0 0 0 0 0 0 3 3 3 3 3 3 0 0 0 0 0 0 0 0 0 0 0 0 0 0 0 0 0 0 0 0 0 0 0 0
0 0 0 0 0 0 0 0 0 0 0 0 0 0 0 0 0 0 0 0 0 3 3 3 3 0 0 0 0 0 0 0 0 0 0 0 0 3 0 0 0 0 0 0 0 0 0 0 0
0 0 0 0 0 0 0 0 0 0 0 0 0 0 0 0 0 0 0 0 0 0 3 3 3 3 0 0 0 0 0 0 0 0 0 0 0 0 0 0 0 0 0 0 0 0 0 0 0
0 0 0 0 0 0 0 0 0 0 0 0 0 0 0 0 0 0 0 0 0 0 3 3 3 3 3 0 0 0 0 0 0 0 0 0 0 0 0 0 0 0 0 0 0 0 0 0 0
0 0 0 0 0 0 0 0 0 0 0 0 0 0 0 0 0 0 0 0 0 0 0 0 3 3 0 0 0 0 0 0 0 0 0 0 0 0 0 0 0 0 0 0 0 0 0 0 0
0 0 0 0 0 0 0 0 0 0 0 0 0 0 0 0 0 0 0 0 0 0 0 0 0 0 0 0 0 0 0 0 0 0 0 0 0 0 0 0 0 0 0 0 0 0 0 0 0
Height
5835 5836 5838 5839 5841 5842 5843 5844 5845 5846 5846 5847 5847 5848 5849 5849 5851 5853 5851 5850 5850 5850 5850 5850 5850 5851 5851 5851 5851 5852 5852 5852 5852 5852 5852 5852 5852 5852 5852 5852 5851 5851 5851 5851 5851 5851 5851 5851 5851
5830 5832 5834 5835 5836 5837 5839 5840 5841 5842 5843 5843 5844 5844 5844 5845 5846 5846 5846 5846 5846 5846 5847 5847 5847 5847 5848 5848 5848 5849 5849 5849 5849 5849 5849 5849 5849 5849 5849 5849 5849 5849 5849 5849 5849 5849 5849 5849 5849
5826 5827 5829 5830 5831 5834 5835 5836 5837 5838 5838 5839 5839 5840 5840 5841 5842 5842 5842 5842 5842 5843 5843 5843 5843 5844 5844 5844 5845 5845 5845 5845 5846 5846 5846 5846 5846 5846 5846 5846 5845 5845 5846 5846 5846 5846 5846 5846 5846
5821 5823 5824 5826 5827 5829 5830 5831 5832 5833 5834 5834 5835 5836 5836 5837 5838 5838 5838 5838 5838 5839 5839 5839 5839 5840 5840 5840 5841 5841 5841 5842 5842 5842 5842 5842 5842 5842 5842 5842 5842 5842 5842 5842 5842 5842 5842 5842 5842
5815 5817 5819 5820 5823 5824 5825 5826 5827 5828 5829 5830 5830 5831 5832 5832 5832 5833 5834 5834 5834 5834 5834 5835 5835 5835 5835 5835 5836 5836 5837 5837 5837 5838 5838 5838 5838 5838 5838 5838 5838 5838 5838 5838 5838 5838 5838 5838 5839
5811 5812 5814 5816 5818 5819 5820 5821 5822 5823 5824 5825 5825 5826 5827 5827 5828 5828 5829 5829 5829 5829 5829 5829 5830 5830 5830 5830 5830 5831 5831 5832 5832 5833 5833 5833 5833 5833 5833 5833 5833 5833 5833 5833 5833 5833 5833 5834 5834
5806 5807 5808 5810 5812 5814 5815 5816 5817 5818 5819 5820 5820 5821 5822 5822 5822 5823 5823 5823 5823 5823 5824 5824 5824 5824 5824 5824 5825 5825 5826 5827 5827 5827 5828 5828 5828 5828 5828 5828 5827 5827 5827 5828 5828 5828 5828 5828 5829
5799 5801 5802 5804 5806 5808 5809 5810 5811 5812 5813 5814 5814 5815 5816 5817 5817 5817 5818 5818 5818 5818 5818 5817 5817 5817 5817 5818 5819 5819 5820 5821 5821 5822 5822 5822 5822 5822 5822 5822 5822 5822 5822 5822 5822 5822 5822 5822 5822
5793 5795 5796 5799 5800 5802 5803 5804 5805 5806 5807 5808 5808 5809 5810 5810 5811 5811 5812 5812 5812 5811 5811 5810 5810 5810 5810 5811 5812 5813 5814 5814 5815 5815 5816 5815 5815 5815 5815 5816 5816 5816 5816 5815 5815 5816 5815 5816 5816
5786 5788 5791 5792 5794 5795 5796 5797 5798 5800 5801 5801 5802 5802 5803 5804 5804 5805 5805 5806 5805 5805 5804 5803 5803 5803 5803 5804 5805 5806 5807 5807 5808 5808 5809 5809 5808 5808 5808 5808 5809 5808 5808 5808 5808 5808 5808 5808 5809
5779 5782 5784 5785 5786 5787 5789 5790 5791 5793 5794 5795 5795 5796 5796 5797 5798 5798 5798 5799 5799 5798 5797 5796 5796 5796 5796 5797 5798 5799 5800 5800 5800 5801 5801 5801 5801 5800 5800 5801 5800 5800 5800 5800 5800 5801 5801 5801 5801
5772 5775 5776 5778 5779 5780 5782 5783 5784 5786 5787 5788 5788 5789 5789 5790 5791 5791 5791 5791 5791 5791 5790 5789 5789 5789 5789 5790 5791 5791 5792 5792 5792 5793 5793 5793 5792 5792 5792 5792 5792 5792 5792 5792 5792 5792 5792 5792 5792
5765 5767 5769 5770 5771 5773 5774 5776 5777 5779 5780 5780 5781 5782 5782 5783 5783 5784 5784 5784 5784 5783 5783 5782 5781 5781 5781 5781 5782 5783 5783 5784 5784 5784 5784 5784 5783 5783 5783 5783 5783 5783 5783 5782 5783 5783 5783 5783 5784
5758 5760 5761 5762 5764 5765 5767 5768 5770 5772 5772 5773 5773 5774 5775 5775 5776 5776 5776 5776 5776 5775 5775 5774 5773 5773 5772 5773 5774 5775 5775 5775 5776 5776 5776 5775 5774 5774 5774 5774 5774 5774 5773 5773 5773 5774 5774 5774 5775
5750 5752 5754 5755 5756 5757 5759 5761 5763 5764 5764 5765 5766 5767 5767 5768 5768 5768 5768 5768 5768 5767 5766 5765 5765 5764 5764 5764 5764 5765 5766 5766 5767 5767 5766 5766 5765 5765 5765 5765 5764 5764 5763 5763 5763 5764 5765 5765 5765
5742 5744 5746 5748 5749 5750 5752 5754 5755 5755 5756 5757 5758 5759 5759 5760 5760 5760 5760 5760 5759 5758 5758 5757 5756 5756 5755 5755 5755 5755 5756 5757 5757 5757 5757 5756 5756 5756 5756 5755 5754 5754 5754 5754 5754 5754 5755 5755 5756
5735 5737 5738 5740 5741 5742 5743 5746 5747 5747 5748 5749 5750 5750 5751 5752 5752 5751 5751 5751 5750 5750 5749 5748 5747 5747 5747 5747 5746 5745 5746 5747 5747 5747 5747 5746 5746 5746 5746 5745 5745 5744 5744 5744 5745 5745 5746 5746 5747
5728 5729 5731 5732 5733 5734 5735 5737 5738 5738 5739 5740 5741 5742 5743 5743 5743 5743 5742 5742 5741 5741 5740 5739 5738 5738 5738 5738 5737 5736 5737 5737 5737 5737 5737 5737 5737 5736 5736 5735 5735 5735 5735 5735 5736 5736 5736 5737 5737
5720 5721 5722 5724 5724 5725 5727 5728 5729 5729 5730 5731 5732 5733 5734 5734 5734 5733 5733 5733 5732 5732 5731 5730 5730 5729 5729 5729 5728 5728 5727 5727 5727 5727 5727 5727 5727 5726 5726 5725 5725 5725 5725 5726 5726 5726 5727 5727 5727
5712 5713 5714 5715 5716 5717 5718 5719 5721 5721 5722 5723 5723 5724 5724 5724 5724 5724 5724 5724 5723 5723 5722 5721 5721 5720 5720 5719 5719 5718 5717 5717 5718 5717 5717 5717 5717 5717 5716 5716 5715 5715 5715 5715 5716 5716 5716 5717 5717
5704 5706 5707 5707 5707 5707 5709 5711 5713 5713 5713 5714 5714 5715 5715 5715 5715 5715 5715 5715 5714 5714 5713 5712 5712 5711 5711 5710 5709 5709 5708 5708 5709 5708 5707 5707 5707 5707 5706 5706 5705 5705 5705 5705 5705 5705 5706 5706 5706
5697 5698 5698 5698 5699 5699 5700 5700 5704 5704 5704 5705 5706 5705 5705 5706 5705 5705 5705 5705 5705 5704 5703 5703 5702 5702 5701 5701 5700 5700 5700 5700 5700 5699 5698 5698 5697 5697 5696 5695 5695 5695 5695 5695 5694 5694 5695 5695 5695
5689 5689 5690 5690 5690 5691 5691 5691 5695 5695 5696 5696 5697 5696 5696 5695 5695 5695 5695 5695 5695 5694 5694 5693 5693 5692 5692 5691 5691 5691 5691 5691 5691 5690 5689 5688 5687 5687 5686 5685 5685 5685 5684 5684 5684 5684 5684 5684 5684
5680 5681 5682 5681 5681 5682 5684 5683 5685 5687 5688 5688 5687 5687 5686 5686 5685 5685 5685 5685 5684 5684 5684 5683 5683 5683 5683 5682 5682 5682 5682 5681 5681 5680 5679 5679 5677 5677 5676 5675 5674 5674 5674 5674 5673 5673 5672 5672 5672
5673 5674 5674 5673 5673 5674 5676 5674 5677 5679 5679 5679 5678 5677 5677 5676 5676 5676 5676 5675 5674 5674 5674 5673 5674 5674 5674 5673 5673 5673 5672 5672 5671 5670 5670 5669 5668 5666 5665 5664 5664 5663 5663 5662 5662 5661 5661 5660 5660
5665 5666 5667 5666 5666 5666 5666 5666 5670 5670 5670 5669 5669 5668 5668 5667 5666 5666 5666 5665 5664 5664 5664 5664 5664 5664 5664 5664 5664 5663 5663 5662 5661 5660 5660 5659 5658 5656 5655 5654 5653 5652 5652 5651 5650 5650 5649 5649 5648
5657 5658 5659 5658 5657 5657 5657 5659 5661 5661 5661 5660 5660 5659 5659 5658 5657 5656 5656 5655 5655 5654 5654 5653 5653 5653 5654 5654 5654 5653 5653 5652 5651 5650 5649 5649 5647 5646 5644 5643 5643 5642 5641 5640 5639 5639 5638 5637 5636
5649 5650 5650 5650 5649 5649 5649 5650 5652 5651 5651 5651 5651 5650 5649 5649 5648 5647 5646 5645 5645 5644 5643 5643 5643 5643 5643 5643 5643 5643 5642 5641 5641 5640 5639 5638 5637 5635 5634 5633 5632 5632 5631 5629 5628 5627 5626 5625 5623
5642 5642 5642 5641 5641 5641 5640 5644 5643 5642 5642 5642 5641 5641 5640 5639 5638 5637 5637 5636 5635 5634 5634 5633 5633 5633 5633 5633 5633 5632 5632 5631 5630 5629 5628 5628 5627 5625 5624 5623 5622 5621 5620 5619 5617 5616 5614 5613 5611
5633 5633 5634 5634 5633 5633 5632 5636 5634 5633 5632 5632 5632 5631 5631 5630 5629 5628 5627 5627 5626 5625 5625 5624 5623 5623 5623 5622 5622 5621 5621 5620 5619 5618 5618 5617 5617 5616 5614 5613 5612 5611 5609 5608 5606 5604 5602 5601 5599
Wind_Speed
23 22 22 22 22 22 20 19 18 17 17 17 17 17 16 16 15 16 15 15 15 14 14 14 14 14 14 14 13 14 13 13 12 12 12 13 13 12 12 12 11 11 11 11 10 10 10 10 10
24 24 23 24 24 23 22 21 20 19 19 19 19 19 18 18 17 17 17 16 16 17 16 16 16 16 16 16 16 16 16 16 15 15 15 15 15 15 14 14 13 13 13 13 12 12 12 12 12
26 26 25 25 25 24 23 22 21 21 21 20 20 20 20 19 19 18 18 18 18 18 19 18 18 18 18 18 18 18 18 18 18 18 17 17 17 17 17 16 16 15 16 15 15 14 15 14 14
27 27 27 27 26 25 24 24 23 22 22 22 22 21 21 21 20 20 19 19 19 19 20 20 20 20 20 20 20 20 20 20 20 20 19 19 19 18 18 18 18 17 17 18 17 17 17 17 17
28 28 28 28 27 26 26 26 25 24 24 23 23 22 22 22 22 21 21 21 21 21 22 22 22 22 22 22 22 22 22 22 22 22 21 21 20 21 21 21 20 20 20 20 20 20 19 19 19
28 29 29 28 28 27 26 26 26 26 26 25 25 24 23 23 23 23 23 23 23 23 24 24 24 24 24 24 24 23 23 23 23 23 22 22 22 22 23 23 22 22 22 22 22 23 22 22 22
30 30 30 29 29 28 27 27 27 27 27 27 26 26 25 25 25 24 24 24 25 25 25 25 25 26 26 26 25 25 25 25 25 25 25 25 25 25 25 25 25 25 25 25 25 25 25 25 25
32 31 31 30 30 29 28 28 28 28 28 28 28 28 27 27 27 27 26 26 26 26 26 27 27 27 27 27 27 27 27 27 27 27 27 27 28 28 28 28 28 27 27 28 28 27 27 27 27
33 33 32 31 31 30 30 30 30 29 29 29 29 29 29 29 29 28 28 27 27 28 28 28 29 29 29 29 29 29 29 29 30 30 30 30 30 30 30 30 30 30 30 30 30 30 29 30 29
34 34 33 32 32 32 31 31 30 30 30 30 31 31 31 30 30 30 29 29 29 29 29 29 30 31 31 31 31 31 31 31 32 32 32 32 32 32 32 32 32 32 32 32 32 32 31 31 31
33 33 33 33 33 33 32 32 32 31 31 31 31 32 31 31 31 31 31 31 31 30 31 31 31 32 32 32 33 33 33 33 33 34 34 34 34 34 34 34 34 34 34 34 34 34 34 33 33
33 32 33 33 34 33 33 33 32 32 32 32 32 32 32 31 31 31 32 32 32 32 33 33 34 34 34 35 35 35 35 34 34 35 35 36 36 36 36 36 35 36 36 36 36 36 36 35 35
33 33 33 33 34 34 34 34 33 32 32 33 33 32 32 32 32 32 32 33 33 34 34 35 35 35 36 36 36 36 37 36 35 35 36 36 37 36 36 36 37 37 37 38 37 37 36 36 35
32 33 33 34 34 34 34 34 34 32 32 33 33 33 33 33 33 33 33 33 34 34 35 36 36 36 37 37 38 38 39 38 36 37 38 37 37 37 37 37 37 37 37 37 37 37 37 37 36
32 33 33 34 35 35 35 34 34 33 33 33 33 33 33 33 33 33 33 34 34 35 35 36 36 37 37 38 39 39 39 38 38 38 39 38 38 37 37 38 37 37 38 38 39 39 39 38 38
32 33 34 34 34 34 35 34 33 34 34 34 34 33 33 33 34 34 34 35 35 35 36 36 36 36 36 36 37 39 39 39 39 39 40 39 39 39 39 39 39 39 39 39 39 39 39 39 39
32 33 33 33 34 34 35 34 34 35 35 35 34 35 35 34 35 35 35 36 36 36 36 36 35 35 35 36 36 37 38 39 40 40 40 40 40 39 39 39 40 40 40 40 39 39 39 40 40
32 32 32 33 33 34 34 34 34 35 36 36 36 36 36 36 36 36 36 36 36 36 36 36 35 35 35 36 36 37 38 39 40 40 41 42 42 41 41 41 41 41 41 41 41 41 41 42 42
31 32 32 33 33 34 35 35 35 36 36 36 36 36 36 37 37 37 37 37 36 36 36 36 36 35 35 35 36 37 37 38 39 40 40 41 41 41 41 42 43 42 42 43 43 43 43 44 44
31 32 32 33 34 35 35 35 35 36 37 37 37 36 36 36 37 37 37 36 36 36 36 36 36 36 36 36 36 36 36 36 37 38 40 40 40 40 40 41 42 43 44 45 45 44 45 45 46
30 31 32 34 35 36 36 36 35 35 36 36 36 36 37 36 36 37 37 36 36 36 36 36 37 37 37 38 38 38 37 37 36 37 39 40 40 40 41 42 43 44 44 44 45 46 46 46 47
30 30 31 32 34 35 35 36 33 34 34 35 35 35 35 36 36 37 37 37 36 36 37 37 38 38 38 38 38 39 38 38 38 38 39 40 41 42 42 42 41 42 43 43 44 44 45 45 46
30 30 31 31 33 33 33 34 32 31 32 33 33 34 34 35 36 36 37 37 37 38 38 38 38 38 38 39 38 39 39 38 39 39 39 40 41 43 43 42 41 41 42 44 44 44 44 45 46
29 29 30 31 32 33 32 33 32 30 30 31 31 32 32 33 34 34 35 36 37 38 38 38 39 38 38 39 39 40 40 39 39 39 39 39 40 42 43 43 42 42 43 44 45 45 45 46 46
29 29 30 31 32 33 32 33 33 30 30 30 30 31 32 32 33 34 34 34 36 37 38 38 39 39 39 40 40 40 40 40 40 40 40 40 40 41 43 43 43 42 43 44 44 45 45 46 47
29 29 30 31 32 33 32 33 32 31 30 30 30 31 32 33 33 34 34 34 35 36 37 38 39 39 40 40 41 40 41 42 41 41 41 41 41 42 43 43 43 43 44 44 44 44 45 47 47
28 29 29 30 32 33 33 34 33 32 31 31 30 31 32 32 33 34 34 35 36 36 37 38 39 40 40 41 41 42 42 42 42 42 41 41 42 41 41 42 43 43 43 43 43 44 45 46 48
28 28 29 30 32 33 34 33 32 32 32 31 31 31 31 32 33 33 34 35 35 36 36 37 39 40 41 42 43 43 43 43 43 43 42 41 40 40 40 41 42 42 43 43 44 44 45 46 47
28 29 30 32 33 33 34 33 32 32 31 30 30 31 32 33 33 33 33 34 35 35 35 36 37 38 39 40 41 42 42 43 43 44 43 41 41 41 41 41 41 42 43 43 44 45 45 45 46
28 29 30 32 33 34 35 33 32 32 32 31 30 31 32 33 33 34 34 34 35 35 35 36 36 37 37 38 39 40 41 42 42 42 42 42 41 41 41 41 41 41 42 43 43 43 44 44 45
Wind_Direction
242 243 243 243 244 245 247 248 250 251 252 253 254 256 258 259 260 261 262 263 264 263 260 259 257 257 257 256 254 253 254 256 258 259 259 258 257 258 259 259 260 263 263 262 260 259 260 261 260
243 243 243 243 244 246 248 249 251 252 254 256 256 257 257 258 260 262 262 262 262 261 260 259 258 257 257 256 255 254 254 256 257 259 260 261 260 259 260 261 261 262 261 261 260 258 259 260 259
244 243 243 243 245 247 249 250 251 253 255 256 258 257 257 258 259 261 262 262 262 261 260 259 258 258 258 257 256 255 255 255 256 257 259 261 262 261 261 261 262 261 261 260 259 259 258 259 260
244 243 243 244 246 246 249 250 251 253 254 256 257 258 257 258 259 260 262 263 263 262 260 260 260 260 259 258 257 257 257 257 257 257 258 260 262 262 263 262 262 262 261 260 260 260 260 260 260
243 244 244 245 247 248 249 251 251 253 254 254 255 257 258 257 258 260 262 264 263 263 262 262 262 262 261 259 258 257 257 258 258 258 259 261 262 263 263 264 263 263 262 262 261 260 260 260 260
245 246 247 248 249 249 250 251 252 253 254 254 254 255 257 258 258 260 261 263 264 264 264 264 264 263 262 261 259 258 257 257 258 259 261 261 262 263 264 263 262 263 263 262 262 261 261 260 260
247 247 248 249 249 250 251 252 252 253 254 254 254 254 256 258 259 260 262 263 264 265 265 266 265 264 262 261 259 258 258 258 258 259 259 261 262 262 263 263 263 264 264 264 264 264 262 261 261
247 248 248 249 250 251 251 252 252 253 254 255 255 255 256 258 259 260 261 263 264 265 266 266 266 264 262 262 260 259 259 259 258 259 259 261 262 262 262 262 263 265 266 266 264 264 263 262 261
247 248 249 250 251 251 251 252 253 254 255 256 256 257 257 258 260 260 261 262 264 265 266 266 266 264 262 262 261 259 260 260 259 260 260 261 261 262 263 263 264 265 265 265 264 264 264 262 261
249 249 250 251 251 251 251 252 253 254 255 256 257 258 258 259 260 260 261 262 264 265 265 266 265 263 262 262 262 260 260 261 261 260 260 260 261 262 262 262 263 265 266 266 265 264 264 263 261
251 252 252 252 252 252 252 252 253 254 255 256 256 258 259 259 260 260 260 261 263 264 265 265 264 263 262 262 262 260 259 261 261 260 260 261 261 262 263 263 264 265 266 265 264 265 264 264 263
253 254 254 254 253 252 252 253 254 255 255 255 256 257 258 259 260 261 261 262 263 264 265 265 264 264 263 263 262 261 260 260 261 261 261 261 262 262 263 264 264 265 265 265 264 264 264 263 264
253 254 254 253 253 253 253 254 255 255 255 255 256 256 258 259 260 262 263 263 263 264 265 265 265 264 262 261 260 260 260 260 262 263 263 263 263 262 262 263 264 266 267 266 265 265 265 265 264
254 253 253 253 253 253 254 254 255 254 255 256 257 258 259 261 261 263 263 263 264 265 265 266 266 264 262 260 260 259 259 261 262 263 263 262 263 262 263 264 265 266 266 266 265 265 265 264 264
253 254 253 253 254 254 254 254 255 255 255 256 257 258 260 261 262 263 264 265 265 266 266 267 266 264 262 261 260 259 259 260 260 261 262 262 262 262 263 264 264 265 266 267 266 264 264 264 264
253 254 254 254 254 254 254 254 254 255 255 256 257 258 259 260 262 263 265 266 267 267 267 267 265 264 263 262 260 259 258 258 260 261 262 263 263 263 265 266 265 266 266 266 266 265 264 265 266
254 255 256 256 255 255 255 255 254 255 255 256 257 258 260 261 262 263 265 266 267 268 268 266 264 264 263 261 260 258 258 259 261 261 261 263 264 265 266 266 266 267 267 267 266 266 265 266 266
256 256 257 257 257 256 256 256 256 256 256 256 257 259 260 262 263 264 265 266 267 267 268 266 263 263 263 262 262 261 259 260 262 262 263 264 266 267 267 266 267 267 267 266 266 266 267 267 266
256 256 257 258 258 257 257 257 256 257 257 257 258 259 260 262 263 264 264 265 266 266 266 265 263 262 263 262 262 262 261 261 262 263 263 264 266 267 267 267 267 267 266 266 265 266 268 267 267
258 258 258 258 258 259 258 258 257 258 258 258 258 259 260 261 263 264 265 265 265 266 266 264 263 262 261 261 262 261 262 263 264 263 263 264 266 268 268 267 267 267 267 267 266 266 268 268 268
258 259 260 260 260 261 261 260 259 259 259 259 260 261 262 262 263 263 264 264 265 267 265 263 263 262 262 261 262 262 264 264 264 264 263 264 267 268 269 268 268 268 268 267 266 266 267 267 267
259 261 262 263 263 262 262 263 260 260 260 260 262 263 263 262 262 262 263 264 265 266 265 263 263 263 263 263 263 263 264 264 264 265 266 266 266 267 268 268 269 269 269 268 268 267 267 267 267
260 261 263 263 263 263 263 265 262 262 262 262 263 264 264 263 261 260 261 263 264 265 265 263 263 263 264 264 265 264 264 265 265 265 268 268 266 267 267 269 268 268 268 268 267 268 267 267 267
260 262 263 262 262 262 262 265 265 264 265 264 264 264 264 263 262 261 262 263 264 264 264 264 263 264 264 265 266 267 267 265 266 266 267 268 268 267 267 268 268 268 269 269 269 268 268 267 267
259 261 263 262 262 263 263 264 266 266 266 266 266 266 266 265 263 263 264 265 265 265 265 265 264 264 265 266 266 267 268 267 266 267 270 270 270 269 268 268 268 269 270 270 269 269 268 267 268
260 261 262 264 265 265 265 266 267 267 267 268 268 268 268 267 266 265 265 266 266 267 266 265 265 265 264 265 266 268 269 268 268 270 272 273 272 272 271 269 271 271 270 270 270 270 270 269 269
261 261 262 265 266 267 267 267 267 268 269 270 270 270 270 269 268 268 267 267 267 267 267 266 265 265 265 265 267 268 269 270 270 271 272 273 274 273 272 271 272 272 272 273 272 271 272 272 271
262 263 263 264 267 269 269 269 270 269 269 270 270 269 269 269 270 270 270 269 269 268 267 266 266 266 266 266 267 268 269 270 271 271 271 273 273 274 273 272 272 273 274 274 274 274 275 275 274
263 262 263 264 265 267 270 272 271 273 273 273 271 270 269 269 269 270 270 270 270 270 268 268 267 267 266 267 267 268 269 270 271 271 272 273 273 274 275 274 273 273 273 274 275 276 276 276 275
266 265 265 265 265 266 270 272 273 274 275 274 273 271 271 271 271 270 271 270 270 269 269 269 268 267 267 267 268 269 269 270 271 271 272 272 273 274 275 275 275 275 275 276 277 277 277 277 277